Location: Newark
(47.5833°N, 8.1500°E)
Time: 10:22:45
(UTC+00:00)

Altair - Pass Details

Date: 28 October 2020
Orbit: 1502 x 1682 km, 47.2° (Epoch: 25 November)

Event Time Altitude Azimuth Distance (km) Brightness Sun altitude
Exits shadow 03:52:32 - 208° (SSW) 3,944 9.3 -23.0°
Reaches altitude 10° 03:53:29 10° 205° (SSW) 3,663 9.2 -22.8°
Maximum altitude 04:01:50 40° 140° (SE) 2,137 8.5 -21.4°
Drops below altitude 10° 04:10:25 10° 76° (ENE) 3,782 10.7 -20.0°
Sets 04:13:47 0° 69° (ENE) 4,795 11.4 -19.4°
